Location: Il Ritiro
(43.4167°N, 13.1333°E)
Time: 01:27:12
(UTC+00:00)

Cosmos 2297 - Pass Details

Date: 05 July 2020
Orbit: 835 x 859 km, 71.0° (Epoch: 11 August)

Event Time Altitude Azimuth Distance (km) Brightness Sun altitude
Rises 22:48:03 0° 334° (NNW) 3,442 8.1 -23.7°
Reaches altitude 10° 22:50:32 10° 334° (NNW) 2,500 7.1 -23.7°
Maximum altitude 22:56:17 83° 247° (WSW) 866 3.6 -23.8°
Enters shadow 22:57:27 58° 168° (SSE) 988 3.7 -23.8°
